Powrót do katalogu

PARUS-T2

AktywnyNaukaSSO
NORAD 64560·PAYLOAD·🇰🇷 South Korea

Wystrzelony Jun 23, 2025 z Vandenberg Space Force Base

Loading…

Następne Przeloty (najbliższe 24 godziny)

TLE

ŚwieżeSource: Space-Track

Epoka: Sep 14, 2026, 00:49 UTC

1 64560U 25135AJ  26257.03440269  .00003286  00000-0  29620-3 0  9998
2 64560  97.7808  11.0872 0000974  56.8483 303.2831 14.96260804 67198

Śledź PARUS-T2 w czasie rzeczywistym z AllMySat

Download on the App Store